Time,TemperatureF,DewpointF,PressureIn,WindDirection,WindDirectionDegrees,WindSpeedMPH,WindSpeedGustMPH,Humidity,HourlyPrecipIn,Conditions,Clouds,dailyrainin,SoftwareType,DateUTC
2013-01-13 00:02:00,32.0,-99.9,-100.00,WSW,256,5.0,-999.0,-999,-99.99,,,-99.99,,2013-01-13 08:02:00,
2013-01-13 00:12:00,32.0,-99.9,-100.00,WSW,256,5.0,-999.0,-999,-99.99,,,-99.99,,2013-01-13 08:12:00,
2013-01-13 00:20:00,33.0,-99.9,-100.00,WSW,251,3.0,-999.0,-999,-99.99,,,-99.99,,2013-01-13 08:20:00,
2013-01-13 01:02:00,33.0,-99.9,-100.00,WSW,251,3.0,-999.0,-999,-99.99,,,-99.99,,2013-01-13 09:02:00,
2013-01-13 01:12:00,33.0,-99.9,-100.00,WSW,251,3.0,-999.0,-999,-99.99,,,-99.99,,2013-01-13 09:12:00,
2013-01-13 01:20:00,33.0,-99.9,-100.00,West,272,3.0,-999.0,-999,-99.99,,,-99.99,,2013-01-13 09:20:00,
2013-01-13 02:03:00,33.0,-99.9,-100.00,West,272,3.0,-999.0,-999,-99.99,,,-99.99,,2013-01-13 10:03:00,
2013-01-13 02:12:00,33.0,-99.9,-100.00,West,272,3.0,-999.0,-999,-99.99,,,-99.99,,2013-01-13 10:12:00,
2013-01-13 02:20:00,34.0,-99.9,-100.00,SW,222,2.0,-999.0,-999,-99.99,,,-99.99,,2013-01-13 10:20:00,
2013-01-13 03:02:00,34.0,-99.9,-100.00,SW,222,2.0,-999.0,-999,-99.99,,,-99.99,,2013-01-13 11:02:00,
2013-01-13 03:12:00,34.0,-99.9,-100.00,SW,222,2.0,-999.0,-999,-99.99,,,-99.99,,2013-01-13 11:12:00,
2013-01-13 03:20:00,31.0,-99.9,-100.00,SW,230,3.0,-999.0,-999,-99.99,,,-99.99,,2013-01-13 11:20:00,
2013-01-13 04:03:00,31.0,-99.9,-100.00,SW,230,3.0,-999.0,-999,-99.99,,,-99.99,,2013-01-13 12:03:00,
2013-01-13 04:12:00,31.0,-99.9,-100.00,SW,230,3.0,-999.0,-999,-99.99,,,-99.99,,2013-01-13 12:12:00,
2013-01-13 04:20:00,32.0,-99.9,-100.00,SW,235,2.0,-999.0,-999,-99.99,,,-99.99,,2013-01-13 12:20:00,
2013-01-13 05:03:00,32.0,-99.9,-100.00,SW,235,2.0,-999.0,-999,-99.99,,,-99.99,,2013-01-13 13:03:00,
2013-01-13 05:12:00,32.0,-99.9,-100.00,SW,235,2.0,-999.0,-999,-99.99,,,-99.99,,2013-01-13 13:12:00,
2013-01-13 05:20:00,32.0,-99.9,-100.00,West,261,5.0,-999.0,-999,-99.99,,,-99.99,,2013-01-13 13:20:00,
2013-01-13 06:03:00,32.0,-99.9,-100.00,West,261,5.0,-999.0,-999,-99.99,,,-99.99,,2013-01-13 14:03:00,
2013-01-13 06:13:00,32.0,-99.9,-100.00,West,261,5.0,-999.0,-999,-99.99,,,-99.99,,2013-01-13 14:13:00,
2013-01-13 06:20:00,34.0,-99.9,-100.00,NNW,335,5.0,-999.0,-999,-99.99,,,-99.99,,2013-01-13 14:20:00,
2013-01-13 07:03:00,34.0,-99.9,-100.00,NNW,335,5.0,-999.0,-999,-99.99,,,-99.99,,2013-01-13 15:03:00,
2013-01-13 07:13:00,34.0,-99.9,-100.00,NNW,335,5.0,-999.0,-999,-99.99,,,-99.99,,2013-01-13 15:13:00,
2013-01-13 07:20:00,33.0,-99.9,-100.00,ENE,67,6.0,-999.0,-999,-99.99,,,-99.99,,2013-01-13 15:20:00,
2013-01-13 08:04:00,33.0,-99.9,-100.00,ENE,67,6.0,-999.0,-999,-99.99,,,-99.99,,2013-01-13 16:04:00,
2013-01-13 08:13:00,33.0,-99.9,-100.00,ENE,67,6.0,-999.0,-999,-99.99,,,-99.99,,2013-01-13 16:13:00,
2013-01-13 08:20:00,31.0,-99.9,-100.00,SW,219,2.0,-999.0,-999,-99.99,,,-99.99,,2013-01-13 16:20:00,
2013-01-13 09:03:00,31.0,-99.9,-100.00,SW,219,2.0,-999.0,-999,-99.99,,,-99.99,,2013-01-13 17:03:00,
2013-01-13 09:13:00,31.0,-99.9,-100.00,SW,219,2.0,-999.0,-999,-99.99,,,-99.99,,2013-01-13 17:13:00,
2013-01-13 09:20:00,33.0,-99.9,-100.00,SE,137,5.0,-999.0,-999,-99.99,,,-99.99,,2013-01-13 17:20:00,
2013-01-13 10:03:00,33.0,-99.9,-100.00,SE,137,5.0,-999.0,-999,-99.99,,,-99.99,,2013-01-13 18:03:00,
2013-01-13 10:12:00,33.0,-99.9,-100.00,SE,137,5.0,-999.0,-999,-99.99,,,-99.99,,2013-01-13 18:12:00,
2013-01-13 10:20:00,36.0,-99.9,-100.00,SSE,147,0.0,-999.0,-999,-99.99,,,-99.99,,2013-01-13 18:20:00,
2013-01-13 11:03:00,36.0,-99.9,-100.00,SSE,147,0.0,-999.0,-999,-99.99,,,-99.99,,2013-01-13 19:03:00,
2013-01-13 11:12:00,36.0,-99.9,-100.00,SSE,147,0.0,-999.0,-999,-99.99,,,-99.99,,2013-01-13 19:12:00,
2013-01-13 11:20:00,34.0,-99.9,-100.00,SSW,205,1.0,-999.0,-999,-99.99,,,-99.99,,2013-01-13 19:20:00,
2013-01-13 12:03:00,34.0,-99.9,-100.00,SSW,205,1.0,-999.0,-999,-99.99,,,-99.99,,2013-01-13 20:03:00,
2013-01-13 12:12:00,34.0,-99.9,-100.00,SSW,205,1.0,-999.0,-999,-99.99,,,-99.99,,2013-01-13 20:12:00,
2013-01-13 12:20:00,36.0,-99.9,-100.00,SSE,152,0.0,-999.0,-999,-99.99,,,-99.99,,2013-01-13 20:20:00,
2013-01-13 13:03:00,36.0,-99.9,-100.00,SSE,152,0.0,-999.0,-999,-99.99,,,-99.99,,2013-01-13 21:03:00,
2013-01-13 13:13:00,36.0,-99.9,-100.00,SSE,152,0.0,-999.0,-999,-99.99,,,-99.99,,2013-01-13 21:13:00,
2013-01-13 13:20:00,36.0,-99.9,-100.00,ENE,78,2.0,-999.0,-999,-99.99,,,-99.99,,2013-01-13 21:20:00,
2013-01-13 14:03:00,36.0,-99.9,-100.00,ENE,78,2.0,-999.0,-999,-99.99,,,-99.99,,2013-01-13 22:03:00,
2013-01-13 14:13:00,36.0,-99.9,-100.00,ENE,78,2.0,-999.0,-999,-99.99,,,-99.99,,2013-01-13 22:13:00,
2013-01-13 14:20:00,37.0,-99.9,-100.00,WNW,295,3.0,-999.0,-999,-99.99,,,-99.99,,2013-01-13 22:20:00,
2013-01-13 15:03:00,37.0,-99.9,-100.00,WNW,295,3.0,-999.0,-999,-99.99,,,-99.99,,2013-01-13 23:03:00,
2013-01-13 15:12:00,37.0,-99.9,-100.00,WNW,295,3.0,-999.0,-999,-99.99,,,-99.99,,2013-01-13 23:12:00,
2013-01-13 15:20:00,37.0,-99.9,-100.00,North,0,0.0,-999.0,-999,-99.99,,,-99.99,,2013-01-13 23:20:00,
2013-01-13 16:03:00,37.0,-99.9,-100.00,North,0,0.0,-999.0,-999,-99.99,,,-99.99,,2013-01-14 00:03:00,
2013-01-13 16:13:00,37.0,-99.9,-100.00,North,0,0.0,-999.0,-999,-99.99,,,-99.99,,2013-01-14 00:13:00,
2013-01-13 16:20:00,36.0,-99.9,-100.00,WSW,251,2.0,-999.0,-999,-99.99,,,-99.99,,2013-01-14 00:20:00,
2013-01-13 17:03:00,36.0,-99.9,-100.00,WSW,251,2.0,-999.0,-999,-99.99,,,-99.99,,2013-01-14 01:03:00,
2013-01-13 17:13:00,36.0,-99.9,-100.00,WSW,251,2.0,-999.0,-999,-99.99,,,-99.99,,2013-01-14 01:13:00,
2013-01-13 17:20:00,35.0,-99.9,-100.00,WSW,244,3.0,-999.0,-999,-99.99,,,-99.99,,2013-01-14 01:20:00,
2013-01-13 18:03:00,35.0,-99.9,-100.00,WSW,244,3.0,-999.0,-999,-99.99,,,-99.99,,2013-01-14 02:03:00,
2013-01-13 18:12:00,35.0,-99.9,-100.00,WSW,244,3.0,-999.0,-999,-99.99,,,-99.99,,2013-01-14 02:12:00,
2013-01-13 18:20:00,34.0,-99.9,-100.00,West,263,5.0,-999.0,-999,-99.99,,,-99.99,,2013-01-14 02:20:00,
2013-01-13 19:03:00,34.0,-99.9,-100.00,West,263,5.0,-999.0,-999,-99.99,,,-99.99,,2013-01-14 03:03:00,
2013-01-13 19:12:00,34.0,-99.9,-100.00,West,263,5.0,-999.0,-999,-99.99,,,-99.99,,2013-01-14 03:12:00,
2013-01-13 19:20:00,34.0,-99.9,-100.00,SW,220,3.0,-999.0,-999,-99.99,,,-99.99,,2013-01-14 03:20:00,
2013-01-13 20:03:00,34.0,-99.9,-100.00,SW,220,3.0,-999.0,-999,-99.99,,,-99.99,,2013-01-14 04:03:00,
2013-01-13 20:12:00,34.0,-99.9,-100.00,SW,220,3.0,-999.0,-999,-99.99,,,-99.99,,2013-01-14 04:12:00,
2013-01-13 20:20:00,34.0,-99.9,-100.00,SW,227,3.0,-999.0,-999,-99.99,,,-99.99,,2013-01-14 04:20:00,
2013-01-13 21:04:00,34.0,-99.9,-100.00,SW,227,3.0,-999.0,-999,-99.99,,,-99.99,,2013-01-14 05:04:00,
2013-01-13 21:12:00,34.0,-99.9,-100.00,SW,227,3.0,-999.0,-999,-99.99,,,-99.99,,2013-01-14 05:12:00,
2013-01-13 21:20:00,35.0,-99.9,-100.00,South,177,1.0,-999.0,-999,-99.99,,,-99.99,,2013-01-14 05:20:00,
2013-01-13 22:03:00,35.0,-99.9,-100.00,South,177,1.0,-999.0,-999,-99.99,,,-99.99,,2013-01-14 06:03:00,
2013-01-13 22:12:00,35.0,-99.9,-100.00,South,177,1.0,-999.0,-999,-99.99,,,-99.99,,2013-01-14 06:12:00,
2013-01-13 22:20:00,36.0,-99.9,-100.00,South,188,2.0,-999.0,-999,-99.99,,,-99.99,,2013-01-14 06:20:00,
2013-01-13 23:02:00,36.0,-99.9,-100.00,South,188,2.0,-999.0,-999,-99.99,,,-99.99,,2013-01-14 07:02:00,
2013-01-13 23:12:00,36.0,-99.9,-100.00,South,188,2.0,-999.0,-999,-99.99,,,-99.99,,2013-01-14 07:12:00,
2013-01-13 23:20:00,36.0,-99.9,-100.00,South,171,2.0,-999.0,-999,-99.99,,,-99.99,,2013-01-14 07:20:00,